OE5OVL-13 Weather Reports


time (UTC)temp
C
wind
direction
speed
KPH
gust
KPH
rain 1hr
cm
rain 24hr
cm
rain mn
cm
humidity
%
barometer
mb
20260905235759 17 0.0 0.0 0.00 0.00 0.00 89 1025.5
20260905234248 17 0.0 0.0 0.00 0.00 0.00 89 1025.5
20260905232736 17 0.0 0.0 0.00 0.00 0.00 88 1025.3
20260905231224 18 0.0 0.0 0.00 0.00 0.00 88 1025.2
20260905225712 17 0.0 0.0 0.00 0.00 0.00 89 1025.1
20260905224201 17 0.0 0.0 0.00 0.00 0.00 86 1024.9
20260905222649 17 0.0 0.0 0.00 0.00 0.00 86 1024.7
20260905221137 17 0.0 0.0 0.00 0.00 0.00 84 1024.6
20260905215625 18 0.0 0.0 0.00 0.00 0.00 83 1024.5
20260905214114 18 0.0 0.0 0.00 0.00 0.00 84 1024.3
20260905212602 18 0.0 0.0 0.00 0.00 0.00 83 1024.2
20260905211050 18 0.0 0.0 0.00 0.00 0.00 80 1024.0
20260905205538 18 0.0 0.0 0.00 0.00 0.00 78 1024.0
20260905204027 18 0.0 0.0 0.00 0.00 0.00 75 1024.0
20260905202515 20 0.0 0.0 0.00 0.00 0.00 71 1023.9
20260905201003 21 0.0 0.0 0.00 0.00 0.00 66 1023.8
20260905195451 21 0.0 0.0 0.00 0.00 0.00 67 1023.7
20260905193940 20 0.0 0.0 0.00 0.00 0.00 67 1023.6
20260905192428 21 0.0 0.0 0.00 0.00 0.00 66 1023.5
20260905190916 21 0.0 0.0 0.00 0.00 0.00 62 1023.3
20260905185404 22 0.0 0.0 0.00 0.00 0.00 61 1023.1
20260905183853 21 0.0 0.0 0.00 0.00 0.00 63 1023.0
20260905182341 22 0.0 0.0 0.00 0.00 0.00 61 1022.8
20260905180829 22 0.0 0.0 0.00 0.00 0.00 57 1022.6
20260905175317 23 0.0 0.0 0.00 0.00 0.00 55 1022.5
20260905173806 23 0.0 0.0 0.00 0.00 0.00 53 1022.1
20260905172254 24 0.0 0.0 0.00 0.00 0.00 51 1022.0
20260905170742 25 0.0 0.0 0.00 0.00 0.00 47 1021.9
20260905165230 29 0.0 0.0 0.00 0.00 0.00 38 1021.8
20260905163719 32 0.0 0.0 0.00 0.00 0.00 35 1021.8
20260905162207 31 0.0 0.0 0.00 0.00 0.00 35 1021.7
20260905160655 31 0.0 0.0 0.00 0.00 0.00 35 1021.7
20260905155143 31 0.0 0.0 0.00 0.00 0.00 35 1021.6
20260905153632 32 0.0 0.0 0.00 0.00 0.00 34 1021.5
20260905152120 31 0.0 0.0 0.00 0.00 0.00 36 1021.5
20260905150608 32 0.0 0.0 0.00 0.00 0.00 35 1021.5
20260905145056 32 0.0 0.0 0.00 0.00 0.00 35 1021.4
20260905143545 30 0.0 0.0 0.00 0.00 0.00 38 1021.7
20260905142033 30 0.0 0.0 0.00 0.00 0.00 39 1021.8
20260905140521 30 0.0 0.0 0.00 0.00 0.00 39 1021.7
20260905135009 28 0.0 0.0 0.00 0.00 0.00 42 1021.9
20260905133458 28 0.0 0.0 0.00 0.00 0.00 44 1021.7
20260905131946 26 0.0 0.0 0.00 0.00 0.00 47 1022.0
20260905130434 26 0.0 0.0 0.00 0.00 0.00 50 1022.2
20260905124922 26 0.0 0.0 0.00 0.00 0.00 51 1022.3
20260905123411 23 0.0 0.0 0.00 0.00 0.00 58 1022.6
20260905121859 25 0.0 0.0 0.00 0.00 0.00 54 1022.6
20260905120347 26 0.0 0.0 0.00 0.00 0.00 54 1022.7
20260905114835 25 0.0 0.0 0.00 0.00 0.00 56 1022.6
20260905113324 24 0.0 0.0 0.00 0.00 0.00 61 1022.5
20260905111812 23 0.0 0.0 0.00 0.00 0.00 57 1022.6
20260905110300 22 0.0 0.0 0.00 0.00 0.00 65 1022.6
20260905104748 22 0.0 0.0 0.00 0.00 0.00 70 1022.8
20260905103237 22 0.0 0.0 0.00 0.00 0.00 76 1022.7
20260905101725 21 0.0 0.0 0.00 0.00 0.00 80 1022.9
20260905100213 21 0.0 0.0 0.00 0.00 0.00 80 1022.9
20260905094701 21 0.0 0.0 0.00 0.00 0.00 82 1023.0
20260905093150 21 0.0 0.0 0.00 0.00 0.00 83 1022.9
20260905091638 20 0.0 0.0 0.00 0.00 0.00 90 1023.0
20260905090126 19 0.0 0.0 0.00 0.00 0.00 98 1023.2
20260905084614 18 0.0 0.0 0.00 0.00 0.00 99 1023.0
20260905083103 18 0.0 0.0 0.00 0.00 0.00 96 1023.0
20260905081551 18 0.0 0.0 0.00 0.00 0.00 10 1023.0
20260905080039 18 0.0 0.0 0.00 0.00 0.00 10 1022.7
20260905074527 18 0.0 0.0 0.00 0.00 0.00 10 1022.6
20260905073016 18 0.0 0.0 0.00 0.00 0.00 10 1022.9
20260905071503 18 0.0 0.0 0.00 0.00 0.00 10 1022.5
20260905065952 18 0.0 0.0 0.00 0.00 0.00 10 1022.7
20260905064440 18 0.0 0.0 0.00 0.00 0.00 10 1022.4
20260905061416 18 0.0 0.0 0.00 0.00 0.00 10 1021.2
20260905055904 18 0.0 0.0 0.00 0.00 0.00 10 1020.7
20260905054353 18 0.0 0.0 0.00 0.00 0.00 10 1020.4
20260905051328 18 0.0 0.0 0.00 0.00 0.00 85 1019.3
20260905045816 19 0.0 0.0 0.00 0.00 0.00 80 1019.0
20260905044305 21 0.0 0.0 0.00 0.00 0.00 59 1018.3
20260905042753 21 0.0 0.0 0.00 0.00 0.00 62 1017.8
20260905041241 21 0.0 0.0 0.00 0.00 0.00 64 1017.2
20260905035729 21 0.0 0.0 0.00 0.00 0.00 71 1016.8
20260905025642 20 0.0 0.0 0.00 0.00 0.00 75 1016.3
20260905015555 21 0.0 0.0 0.00 0.00 0.00 74 1015.6
20260905012532 21 0.0 0.0 0.00 0.00 0.00 71 1015.5
20260905011020 21 0.0 0.0 0.00 0.00 0.00 71 1015.4
20260905005508 21 0.0 0.0 0.00 0.00 0.00 72 1015.4
20260905003957 22 0.0 0.0 0.00 0.00 0.00 68 1015.3
20260905002445 21 0.0 0.0 0.00 0.00 0.00 71 1015.3
20260905000933 22 0.0 0.0 0.00 0.00 0.00 69 1015.2